Regional Weather Roundup
Issued by NWS

Home | Current Version | Previous Version | Graphics & Text | Print | Product List | Glossary On
Versions: 1 2 3 4 5 6 7 8 9 10 11 12 13 14 15 16 17 18 19 20 21 22 23 24 25 26 27 28 29 30 31 32 33 34 35 36 37 38 39 40 41 42 43 44 45 46 47 48 49 50
000
ASUS43 KBIS 021110
RWRND

NORTH DAKOTA REGIONAL WEATHER ROUNDUP
NATIONAL WEATHER SERVICE BISMARCK ND
600 AM CDT THU JUL 02 2015

NOTE: "FAIR" INDICATES FEW OR NO CLOUDS BELOW 12,000 FEET WITH NO
SIGNIFICANT WEATHER AND/OR OBSTRUCTIONS TO VISIBILITY.


NDZ001>003-009>011-017-021200-
NORTHWEST NORTH DAKOTA

CITY           SKY/WX    TMP DP  RH WIND       PRES   REMARKS
WILLISTON      CLEAR     56  53  90 W3        30.00R
MINOT          MOCLDY    61  59  93 CALM      29.94S FOG
MINOT AFB      CLEAR     57  57 100 W5        29.94R FOG
$$

NDZ018>021-031>035-040>046-021200-
SOUTHWEST NORTH DAKOTA

CITY           SKY/WX    TMP DP  RH WIND       PRES   REMARKS
BISMARCK       LGT RAIN  62  61  96 NE5       29.97S
DICKINSON      PTCLDY    57  55  93 W6        30.01R FOG
GARRISON         N/A     60  59  96 NW3       29.97R
HETTINGER ARPT PTCLDY    55  53  93 NW6       30.04R FOG
$$

NDZ004>008-012>016-024-026-027-054-021200-
NORTHEAST NORTH DAKOTA

CITY           SKY/WX    TMP DP  RH WIND       PRES   REMARKS
GRAND FORKS    PTCLDY    57  55  93 SE6       29.95S
GRND FRKS AFB  CLEAR     58  55  92 S7        29.95S
DEVILS LAKE    CLOUDY    66  61  82 S6        29.93R
$$

NDZ022-023-025-028>030-036>039-047>053-021200-
SOUTHEAST NORTH DAKOTA

CITY           SKY/WX    TMP DP  RH WIND       PRES   REMARKS
FARGO          CLEAR     59  54  83 SE7       29.98S
JAMESTOWN      PTCLDY    62  59  90 S5        29.95R
$$




USA.gov is the U.S. government's official web portal to all federal, state and local government web resources and services.